TimeEST,TemperatureF,Dew PointF,Humidity,Sea Level PressureIn,VisibilityMPH,Wind Direction,Wind SpeedMPH,Gust SpeedMPH,PrecipitationIn,Events,Conditions,WindDirDegrees,DateUTC
12:53 AM,39.0,28.0,65,30.24,10.0,NW,9.2,-,N/A,,Clear,310,2005-01-01 05:53:00
1:53 AM,35.1,25.0,67,30.26,10.0,WNW,10.4,-,N/A,,Clear,290,2005-01-01 06:53:00
2:53 AM,33.1,23.0,66,30.29,10.0,NW,9.2,-,N/A,,Clear,310,2005-01-01 07:53:00
3:53 AM,28.9,21.0,72,30.33,10.0,NW,6.9,-,N/A,,Clear,310,2005-01-01 08:53:00
4:53 AM,28.0,19.0,69,30.35,10.0,NW,8.1,-,N/A,,Clear,310,2005-01-01 09:53:00
5:53 AM,27.0,19.9,75,30.39,10.0,NNW,3.5,-,N/A,,Clear,330,2005-01-01 10:53:00
6:53 AM,26.1,19.9,78,30.42,10.0,NNW,4.6,-,N/A,,Clear,330,2005-01-01 11:53:00
7:53 AM,25.0,19.9,81,30.45,10.0,NNW,5.8,-,N/A,,Clear,340,2005-01-01 12:53:00
8:53 AM,28.9,24.1,82,30.48,10.0,NNW,4.6,-,N/A,,Clear,340,2005-01-01 13:53:00
9:53 AM,30.0,21.9,72,30.50,10.0,North,4.6,-,N/A,,Clear,350,2005-01-01 14:53:00
10:53 AM,30.9,21.9,69,30.52,10.0,NE,6.9,-,N/A,,Clear,40,2005-01-01 15:53:00
11:53 AM,33.1,21.0,61,30.53,10.0,Calm,Calm,-,N/A,,Clear,0,2005-01-01 16:53:00
12:53 PM,34.0,21.9,61,30.51,10.0,Variable,6.9,-,N/A,,Clear,0,2005-01-01 17:53:00
1:53 PM,35.1,21.9,59,30.49,10.0,NE,9.2,-,N/A,,Clear,50,2005-01-01 18:53:00
2:53 PM,35.1,21.0,57,30.49,10.0,ENE,12.7,-,N/A,,Clear,70,2005-01-01 19:53:00
4:53 PM,34.0,21.9,61,30.52,10.0,East,8.1,-,N/A,,Mostly Cloudy,90,2005-01-01 21:53:00
5:53 PM,34.0,24.1,67,30.52,10.0,East,12.7,-,N/A,,Overcast,80,2005-01-01 22:53:00
6:53 PM,33.1,27.0,78,30.52,10.0,East,10.4,-,0.00,Rain,Light Rain,90,2005-01-01 23:53:00
7:53 PM,32.0,27.0,82,30.52,10.0,East,10.4,-,0.00,,Overcast,80,2005-01-02 00:53:00
8:34 PM,30.2,26.6,86,30.47,10.0,East,15.0,-,0.01,Rain,Light Freezing Rain,80,2005-01-02 01:34:00
8:53 PM,30.9,28.0,89,30.49,10.0,East,11.5,-,0.01,,Overcast,80,2005-01-02 01:53:00
9:53 PM,32.0,28.0,85,30.48,10.0,East,10.4,-,0.00,,Overcast,80,2005-01-02 02:53:00
10:53 PM,32.0,28.9,88,30.45,7.0,East,10.4,-,0.00,Rain,Light Freezing Rain,80,2005-01-02 03:53:00
11:18 PM,32.0,30.2,93,30.42,7.0,East,9.2,-,0.00,,Overcast,90,2005-01-02 04:18:00
11:29 PM,32.0,30.2,93,30.42,6.0,East,8.1,-,0.01,,Overcast,80,2005-01-02 04:29:00
11:53 PM,32.0,30.0,92,30.43,10.0,East,10.4,-,0.01,,Overcast,90,2005-01-02 04:53:00